1st Responders/1st Detectors/Storm Spotters Weather Summary for Bullitt County, KY

Forecast Maps


Reg. NEXRAD Animation


National Fire Danger: Day 1 & 2 Map

Current NWS Watch/Warnings

SPC Convective Day 1 Outlook


Day 2 Outlook

(Click images to enlarge|Page will refresh every 5 minutes)
UK Ag. Weather Center Desktop Severe Weather Service[HERE]
Bullitt County, KY Hazardous Weather Outlook Webcast
(9 AM to 9 PM Mon-Fri)
[Fast]
[Dial-up]


UKAWC 1st Detectors/1st Responders Precision Weather Forecast For BULLITT County, Kentucky
(based on the NWS County Digital Forecast)

ISSUED AT 00:00 UTC ON SATURDAY JUN 23 2018
DAY FRIDAY SATURDAY
EDT 3HR 9P 10P 11P MIDN 1A 2A 3A 4A 5A 6A 7A 8A 9A 10A 11A NOON 1P 2P 3P 4P 5P 6P 7P
MAX/MIN -- -- -- -- -- -- -- -- -- -- -- 65° -- -- -- -- -- -- -- -- -- -- 81°
TEMP 70° 70° 67° 67° 65° 65° 65° 65° 65° 65° 65° 65° 67° 70° 72° 74° 76° 79° 79° 81° 81° 79° 79°
SKY COVER 48% 49% 51% 48% 50% 71% 72% 73% 74% 77% 79% 82% 79% 76% 74% 73% 71% 71% 73% 77% 80% 76% 70%
Clouds
DEW PT 65° 65° 65° 65° 65° 65° 65° 65° 63° 65° 65° 65° 65° 65° 67° 67° 67° 67° 67° 67° 67° 67° 67°
RH 84% 81% 89% 93% 96% 100% 99% 100% 96% 99% 99% 100% 92% 86% 81% 76% 71% 67% 64% 62% 62% 66% 68%
POP 12HR -- -- -- -- -- -- -- -- -- -- -- 19% -- -- -- -- -- -- -- -- -- -- --
RAIN/SNOW (liq.equ) -- -- -- -- -- 0.01in -- -- -- -- -- 0.00in -- -- -- -- -- 0.01in -- -- -- -- --
SNOWFALL -- -- -- -- -- 0in -- -- -- -- -- 0in -- -- -- -- -- 0in -- -- -- -- --
WIND SPEED(MPH) 7 7 8 7 7 5 5 5 5 5 5 6 7 7 9 9 10 10 10 9 9 8 8
WIND Gust(MPH) 9 10 13 10 10 7 7 7 7 7 7 7 9 10 14 15 15 15 15 15 15 14 13
WIND DIR SW SW SW SW SW SW SW SW SW SW SW SW SW SW SW SW SW SW SW SW W W W
DEW Lgt Dew Lgt Dew Mod Dew Mod Dew Mod Dew Mod Dew Mod Dew Mod Dew Mod Dew Mod Dew Mod Dew Mod Dew Mod Dew Mod Dew Mod Dew Lgt Dew -- -- -- -- -- -- --
HeatIndex 70 70 67 67 65 65 65 65 65 65 65 65 67 70 72 74 76 79 82 83 83 82 79
Rain Showers Isolated -- -- -- -- -- -- -- -- -- -- Isolated Isolated Isolated Isolated Isolated Isolated Scattered Scattered Scattered Scattered Scattered Scattered
Thunder Storm -- -- -- -- -- -- -- -- -- -- -- Isolated Isolated Isolated Isolated Isolated Isolated Isolated Isolated Isolated Isolated Isolated Isolated
WIND CHILL -- -- -- -- -- -- -- -- -- -- -- -- -- -- -- -- -- -- -- -- -- -- --
SPRAY COND
DRY COND
LIVESTOCK HEATSTRESS 69.01 68.83 66.50 66.68 64.86 65.00 64.97 65.00 64.86 64.97 64.97 65.00 66.64 69.14 70.62 71.99 73.26 75.33 75.00 76.36 76.36 75.22 75.44



DAY SUNDAY MONDAY TUESDAY WEDNESDAY THURSDAY FRIDAY
EDT 6HR 8P 9P 10P 11P MIDN 1A 2A 3A 4A 5A 6A 7A 8A 11A 2P 5P 8P 11P 2A 5A 8A 11A 2P 5P 8P 2A 8A 2P 8P 2A 8A 2P 8P 2A 8A 2P 8P 2A 8A 2P 8P
MAX/MIN -- -- -- -- -- -- -- -- -- -- -- -- 67° -- -- 85° -- -- -- -- 67° -- -- 86° -- -- 68° 88° -- -- 72° 88° -- -- 72° 90° -- -- 72° 90° --
TEMP 76° 76° 74° 72° 70° 70° 68° 68° 68° 67° 67° 67° 68° 76° 83° 83° 81° 74° 70° 67° 70° 79° 85° 85° 83° 72° 72° 88° 83° 74° 74° 88° 83° 76° 74° 90° 83° 74° 74° 90° 83°
SKY COVER 65% 62% 56% 53% 57% 64% 68% 68% 69% 70% 69% 69% 69% 66% 72% 64% 52% 37% 48% 39% 55% 45% 55% 46% 50% 44% 42% 44% 39% 47% 54% 57% 50% 39% 36% 39% 61% 50% 48% 55% 53%
Clouds
DEW PT 67° 67° 67° 67° 67° 67° 67° 67° 67° 67° 67° 67° 67° 70° 70° 70° 70° 70° 67° 67° 67° 70° 70° 70° 70° 65° 67° 70° 70° 70° 70° 72° 72° 70° 70° 74° 72° 70° 70° 74° 72°
RH 73% 75% 78% 83% 90% 89% 92% 92% 92% 96% 96% 100% 96% 79% 65% 65% 71% 84% 90% 96% 93% 71% 61% 59% 65% 81% 84% 55% 65% 84% 87% 61% 67% 82% 84% 57% 72% 90% 90% 59% 67%
POP 12HR 26% -- -- -- -- -- -- -- -- -- -- -- 31% -- -- -- 41% -- -- -- 16% -- -- -- 22% -- 3% -- 17% -- 30% -- 37% -- 18% -- 11% -- 45% -- 28%
RAIN/SNOW (liq.equ) 0.03in -- -- -- -- -- 0.01in -- -- -- -- -- 0.03in -- 0.06in -- 0.04in -- 0.00in -- 0.00in -- 0.00in -- 0.03in -- -- -- -- -- -- -- -- -- -- -- -- -- -- -- --
SNOWFALL 0in -- -- -- -- -- 0in -- -- -- -- -- 0in -- 0in -- 0in -- 0in -- 0in -- 0in -- 0in -- -- -- -- -- -- -- -- -- -- -- -- -- -- -- --
WIND SPEED(MPH) 7 7 6 5 2 2 2 2 5 5 5 6 6 5 6 7 5 2 1 1 5 6 5 6 5 5 5 7 7 7 8 13 10 7 7 7 7 5 6 6 6
WIND DIR W SW SW SW SW SW S SW SW SW SW SW SW SW W W W E E NE E E E E E E SE S S S S SW SW SW SW SW SW S S SW SE
HeatIndex 76 76 74 72 70 70 68 68 68 67 67 67 68 76 88 88 85 74 70 67 70 83 91 90 87 72 72 93 88 74 74 95 89 76 74 100 88 74 74 99 89
Rain Showers Slight Chance Slight Chance Slight Chance Slight Chance Slight Chance Slight Chance Chance Chance Chance Chance Chance Chance Chance Chance Chance Chance Slight Chance Slight Chance Slight Chance Slight Chance Slight Chance Slight Chance Slight Chance Slight Chance -- -- -- Slight Chance -- Chance Chance Chance Slight Chance -- -- -- Chance Slight Chance Chance Slight Chance Slight Chance
Thunder Storm Slight Chance Slight Chance Slight Chance Slight Chance Slight Chance Slight Chance Slight Chance Slight Chance Slight Chance Slight Chance Slight Chance Slight Chance Chance Chance Chance Chance Slight Chance Slight Chance -- -- -- -- Slight Chance Slight Chance -- -- -- Slight Chance -- Chance Chance Chance Slight Chance -- -- -- Slight Chance -- Slight Chance Slight Chance Slight Chance
WIND CHILL -- -- -- -- -- -- -- -- -- -- -- -- -- -- -- -- -- -- -- -- -- -- -- -- -- -- -- -- -- -- -- -- -- -- -- -- -- -- -- -- --
SPRAY COND
DRY COND
LIVESTOCK HEATSTRESS 73.45 73.64 72.16 70.77 69.38 69.32 67.60 67.60 67.60 66.82 66.82 67.00 67.80 74.01 78.34 78.34 77.46 72.66 69.38 66.82 69.57 75.78 79.38 79.09 78.34 70.62 70.84 80.77 78.34 72.66 72.91 81.74 78.61 74.30 72.66 82.62 79.27 73.16 73.16 82.96 78.61

Click on individual weather variable above in left-hand column (ie., TEMP, RH, QPF 12HR) to view state forecast maps






NWS 48 Hr. Forecast Maps,

Regional Hourly Observations For BULLITT County, Kentucky
Issued at 800 PM EDT FRI JUN 22 2018
NORTH CENTRAL KENTUCKY
  
CITY           SKY/WX    TMP DP  RH WIND       PRES   REMARKS
LOUISVILLE/SDF PTSUNNY   73  65  75 W14       29.69R                  
LOUISVILLE/LOU LGT RAIN  75  67  76 W14G29    29.69R                  
FORT KNOX      NOT AVBL                                               


Current NOWCAST not available:
Nowcasts are not issued routinely during fair weather. Only when
precipitation or other significant weather is occuring in this county will these
forecasts be issued. Currently, there is no short term forecast in effect.


Fire Weather Forecast For BULLITT County, KY
Provided by the National Weather Service:

Issued at: Fri Jun 22 20:05:01 EDT 2018

401 AM EDT Fri Jun 22 2018

                      Today        Tonight      Sat          

CLOUD COVER           MCldy        MCldy        MCldy        
PRECIP TYPE           tstms        tstms        tstms        
CHANCE PRECIP (%)     60           40           20           
TEMP (24H TREND)      79 (0)       65 (-3)      81           
RH % (24H TREND)      68 (-4)      100 (+2)     60           
20FTWND-VAL/AM(MPH)   Lgt/Var                   SW  5        
20FTWND-RDG/PM(MPH)   SW  5        Lgt/Var      W  7         
PRECIP AMOUNT         0.40         0.10         0.01         
MIXING HGT(FT-AGL/MSL)5334                      5837         
TRANSPORT WND (MPH)   S 18                      SW 17        
VENT RATE (KT-FT)     110460                    107546       
DISPERSION            Excellent                 Excellent    
DSI                   SLGT UNSTBL  SLGT UNSTBL  SLGT UNSTBL  
LAL                   4            3            3            
HAINES INDEX          3            3            2            
ADI EARLY             38 FAIR      11 POOR      26 FAIR      
ADI LATE              54 GEN GOOD  8 POOR       56 GEN GOOD  
MAX LVORI EARLY       6            6            5            
MAX LVORI LATE        3            7            3            

REMARKS...ADI IS ATMOSPHERIC DISPERSION INDEX BY LAVDAS.        
LVORI IS LOW VISIBILITY OCCURRENCE RISK INDEX.

.SUNDAY...Mostly cloudy. A 50 percent chance of showers and
thunderstorms. Lows in the mid 60s. Highs in the mid 80s. West
winds around 5 mph. 
.MONDAY...Partly cloudy. Lows in the mid 60s. Highs in the mid
80s. West winds around 5 mph. 
.TUESDAY...Partly cloudy. Lows in the mid 60s. Highs in the upper
80s. South winds around 5 mph. 
.WEDNESDAY...Partly cloudy. A 50 percent chance of showers and
thunderstorms. Lows in the lower 70s. Highs in the upper 80s.
Southwest winds 5 to 10 mph. 
.THURSDAY...Partly cloudy. Lows in the lower 70s. Highs in the
lower 90s. Southwest winds 5 to 10 mph. 

SPC's Fire Weather Web Tool (Excellent!), SPC's Fire Weather Outlooks, NWS Fire Weather WEB, Fire Danger Class Map,
Keetch-Byram Drought Index, ROMAN Web, Haines Index ,
WFAS's 10-hr Dead Fuel Moist., WFAS's 100-hr Dead Fuel Moist., Probablity of Ignition, Visual blackness Map, Palmer Drought Index, HPC's Rainfall Forecast Maps


Hazardous Weather Outlook For BULLITT County, Kentucky
310 PM EDT Fri Jun 22 2018 /210 PM CDT Fri Jun 22 2018/

 DAY ONE  Late This Afternoon and Tonight.

Scattered to numerous thunderstorms are expected through early
evening as a low pressure system moves across the Ohio Valley. Brief
heavy rain, lightning, and strong wind gusts are expected with the 
stronger cells. An isolated severe storm with damaging winds is 
possible.

 DAYS TWO THROUGH SEVEN  Saturday through Thursday.

Isolated to scattered storms are expected each day through Thursday.
Heavy downpours and gusty winds will accompany the strongest storms.


 SPOTTER INFORMATION STATEMENT  

Spotters are encouraged to report any severe weather or flooding 
Friday and through the weekend to the National Weather Service.

Latest BULLITT County, Kentucky Watches, Warnings and Advisories.
Additional Drought Info.: UKAWC Drought Page, Kentucky Drought Watch


7-Day Forecast For BULLITT County, KY

OVERNIGHT
Partly cloudy. Isolated showers late in the evening. Lows in the mid 60s. Southwest winds 5 to 10 mph. Chance of showers 20 percent.

SATURDAY
Mostly cloudy with scattered showers and isolated thunderstorms. Highs in the lower 80s. Southwest winds 5 to 15 mph. Chance of precipitation 30 percent.

SATURDAY NIGHT
Partly cloudy with chance of showers and slight chance of thunderstorms. Lows in the upper 60s. Southwest winds 5 to 10 mph. Chance of precipitation 40 percent.

SUNDAY
Partly cloudy with a 40 percent chance of showers and thunderstorms. Highs in the mid 80s. Southwest winds around 5 mph.

SUNDAY NIGHT
Partly cloudy with a 20 percent chance of showers and thunderstorms. Lows in the upper 60s. North winds up to 5 mph.

MONDAY
Partly cloudy with a 20 percent chance of showers and thunderstorms. Highs in the upper 80s.

MONDAY NIGHT
Partly cloudy. Lows in the upper 60s.

TUESDAY
Partly cloudy with a 20 percent chance of showers and thunderstorms. Highs around 90.

TUESDAY NIGHT
Partly cloudy with a 30 percent chance of showers and thunderstorms. Lows in the lower 70s.

WEDNESDAY
Partly cloudy with a 40 percent chance of showers and thunderstorms. Highs around 90.

WEDNESDAY NIGHT
Partly cloudy with a 20 percent chance of showers and thunderstorms. Lows in the lower 70s.

THURSDAY
Partly cloudy. Highs in the lower 90s.

THURSDAY NIGHT
Partly cloudy with chance of showers and slight chance of thunderstorms. Lows in the lower 70s. Chance of precipitation 50 percent.

FRIDAY
Partly cloudy with chance of showers and slight chance of thunderstorms. Highs in the lower 90s. Chance of precipitation 30 percent.

Ag Weather Center, Department of Biosystems & Agricultural Engineering, University of Kentucky